This is the latest recevied weather packets stored in our database for station/object K4VEB. If no packets are shown the sender has not sent any weather packets the latest 10 day(s).
| Time | Temp. | Humidity | Pressure | Rain* | Wind** | Luminosity | Snow |
|---|---|---|---|---|---|---|---|
| 1777929243 | 28.89° C | 39% | 1014.3 hPa | 0 mm | - | 448 W/m² | - |
| 1777928940 | 28.33° C | 39% | 1014.3 hPa | 0 mm | - | 476 W/m² | - |
| 1777928637 | 28.33° C | 41% | 1014.4 hPa | 0 mm | - | 498 W/m² | - |
| 1777928335 | 28.89° C | 40% | 1014.4 hPa | 0 mm | - | 528 W/m² | - |
| 1777928032 | 28.89° C | 36% | 1014.3 hPa | 0 mm | - | 562 W/m² | - |
| 1777927730 | 28.89° C | 37% | 1014.2 hPa | 0 mm | - | 593 W/m² | - |
| 1777927428 | 28.89° C | 38% | 1014.4 hPa | 0 mm | - | 612 W/m² | - |
| 1777927128 | 28.89° C | 37% | 1014.3 hPa | 0 mm | - | 617 W/m² | - |
| 1777926824 | 28.89° C | 37% | 1014.4 hPa | 0 mm | - | 652 W/m² | - |
| 1777926520 | 28.89° C | 37% | 1014.4 hPa | 0 mm | - | 665 W/m² | - |
| 1777926217 | 29.44° C | 35% | 1014.2 hPa | 0 mm | - | 676 W/m² | - |
| 1777925913 | 28.89° C | 33% | 1014.4 hPa | 0 mm | - | 664 W/m² | - |
| 1777925611 | 29.44° C | 35% | 1014.5 hPa | 0 mm | - | 679 W/m² | - |
| 1777925308 | 27.78° C | 36% | 1014.7 hPa | 0 mm | - | 655 W/m² | - |
| 1777925005 | 27.78° C | 38% | 1014.6 hPa | 0 mm | - | 136 W/m² | - |
| 1777924701 | 28.89° C | 35% | 1014.6 hPa | 0 mm | - | 709 W/m² | - |
| 1777924397 | 28.89° C | 36% | 1014.8 hPa | 0 mm | - | 717 W/m² | - |
| 1777924094 | 28.89° C | 35% | 1014.8 hPa | 0 mm | - | 744 W/m² | - |
| 1777923790 | 28.33° C | 36% | 1014.9 hPa | 0 mm | - | 747 W/m² | - |
| 1777923486 | 27.78° C | 38% | 1015 hPa | 0 mm | - | 758 W/m² | - |
| 1777923184 | 27.78° C | 37% | 1015.1 hPa | 0 mm | - | 599 W/m² | - |
| 1777922882 | 28.89° C | 38% | 1015.3 hPa | 0 mm | - | 160 W/m² | - |
| 1777922580 | 28.89° C | 39% | 1014.9 hPa | 0 mm | - | 806 W/m² | - |
| 1777922278 | 29.44° C | 36% | 1015.3 hPa | 0 mm | - | 841 W/m² | - |
| 1777921975 | 28.89° C | 37% | 1015.3 hPa | 0 mm | - | 844 W/m² | - |
* Rain latest hour (hover to see other rain measurements)
** Current wind speed in m/s (hover to see current wind gust speed)